POW6SE EGPB-EDDE

Flight info

Callsign POW6SE
Flight time 1h 44m
Altitude 41000
Route KLONN DCT RIVEX DCT LUTIR/N0496F430 DCT RORUS Z529 JUWGI/N0497F410 L980 ROBEG N850 PIROT DCT POVEL Z94 KENIG DCT ROBEL ROBEL1R
Aircraft A359/H-SDE2E3GHIJ3J4J5LM1ORWXY/LB1D1

Departure

Time 2026-04-21 09:29
Airport Sumburgh Airport (EGPB)

Arrival

Time 2026-04-21 11:13
Airport Erfurt-Weimar Airport (EDDE)
Time Latitude Longitude Altitude Speed Heading
2026-04-21 08:58 59.87663 -1.28913 50 ft 0 kts 120°
2026-04-21 09:20 59.87658 -1.28895 43 ft 0 kts 120°
2026-04-21 09:22 59.87656 -1.28890 46 ft 1 kts 122°
2026-04-21 09:22 59.87630 -1.28877 47 ft 7 kts 187°
2026-04-21 09:23 59.87611 -1.28957 47 ft 7 kts 285°
2026-04-21 09:23 59.87653 -1.29034 46 ft 10 kts 320°
2026-04-21 09:23 59.87721 -1.29139 44 ft 14 kts 322°
2026-04-21 09:23 59.87814 -1.29276 44 ft 16 kts 325°
2026-04-21 09:24 59.87899 -1.29404 46 ft 13 kts 308°
2026-04-21 09:24 59.87885 -1.29518 46 ft 10 kts 226°
2026-04-21 09:24 59.87899 -1.29625 47 ft 10 kts 324°
2026-04-21 09:24 59.87963 -1.29717 44 ft 14 kts 324°
2026-04-21 09:25 59.88051 -1.29845 45 ft 16 kts 323°
2026-04-21 09:25 59.88109 -1.30035 47 ft 18 kts 272°
2026-04-21 09:25 59.88096 -1.30318 50 ft 22 kts 263°
2026-04-21 09:25 59.88078 -1.30566 46 ft 16 kts 252°
2026-04-21 09:26 59.88045 -1.30677 51 ft 5 kts 250°
2026-04-21 09:26 59.88055 -1.30729 48 ft 3 kts 326°
2026-04-21 09:26 59.88070 -1.30723 48 ft 2 kts 28°
2026-04-21 09:26 59.88072 -1.30697 44 ft 2 kts 83°
2026-04-21 09:27 59.88072 -1.30692 44 ft 0 kts 84°
2026-04-21 09:29 59.88076 -1.30627 44 ft 32 kts 84°
2026-04-21 09:29 59.88147 -1.29372 52 ft 146 kts 84°
2026-04-21 09:29 59.88249 -1.27009 894 ft 186 kts 83°
2026-04-21 09:29 59.87930 -1.24232 1724 ft 224 kts 109°
2026-04-21 09:30 59.87147 -1.21399 2378 ft 241 kts 120°
2026-04-21 09:30 59.86150 -1.18663 3227 ft 247 kts 124°
2026-04-21 09:30 59.85078 -1.15940 4085 ft 252 kts 125°
2026-04-21 09:30 59.83999 -1.13162 4904 ft 256 kts 124°
2026-04-21 09:31 59.82935 -1.10296 5759 ft 259 kts 123°
2026-04-21 09:31 59.81892 -1.07357 6578 ft 262 kts 122°
2026-04-21 09:31 59.80860 -1.04356 7383 ft 265 kts 121°
2026-04-21 09:31 59.79825 -1.01292 8160 ft 269 kts 122°
2026-04-21 09:32 59.78777 -0.98170 8938 ft 273 kts 122°
2026-04-21 09:32 59.77733 -0.95056 9723 ft 277 kts 122°
2026-04-21 09:32 59.76651 -0.91839 10502 ft 282 kts 123°
2026-04-21 09:32 59.75541 -0.88556 11050 ft 293 kts 122°
2026-04-21 09:33 59.74367 -0.85089 11366 ft 312 kts 123°
2026-04-21 09:33 59.73124 -0.81427 11657 ft 330 kts 123°
2026-04-21 09:33 59.71806 -0.77557 12056 ft 343 kts 123°
2026-04-21 09:33 59.70457 -0.73606 12633 ft 348 kts 123°
2026-04-21 09:34 59.69087 -0.69603 13246 ft 353 kts 123°
2026-04-21 09:34 59.67703 -0.65562 13867 ft 357 kts 124°
2026-04-21 09:34 59.66301 -0.61481 14501 ft 361 kts 123°
2026-04-21 09:34 59.64883 -0.57354 15050 ft 365 kts 124°
2026-04-21 09:35 59.63445 -0.53179 15592 ft 369 kts 123°
2026-04-21 09:35 59.61993 -0.48966 16136 ft 373 kts 124°
2026-04-21 09:35 59.60542 -0.44764 16704 ft 376 kts 124°
2026-04-21 09:35 59.59039 -0.40423 17329 ft 378 kts 123°
2026-04-21 09:36 59.57570 -0.36190 17959 ft 380 kts 123°
2026-04-21 09:36 59.56064 -0.31854 18470 ft 384 kts 123°
2026-04-21 09:36 59.54543 -0.27479 18998 ft 388 kts 123°
2026-04-21 09:36 59.53004 -0.23062 19464 ft 392 kts 123°
2026-04-21 09:37 59.51455 -0.18622 19974 ft 394 kts 123°
2026-04-21 09:37 59.49896 -0.14166 20458 ft 397 kts 123°
2026-04-21 09:37 59.48324 -0.09682 20992 ft 398 kts 124°
2026-04-21 09:37 59.46761 -0.05233 21444 ft 402 kts 123°
2026-04-21 09:38 59.45166 -0.00701 21917 ft 405 kts 124°
2026-04-21 09:38 59.43556 0.03864 22381 ft 408 kts 124°
2026-04-21 09:38 59.41933 0.08459 22861 ft 410 kts 124°
2026-04-21 09:38 59.40301 0.13067 23353 ft 413 kts 124°
2026-04-21 09:39 59.38655 0.17707 23837 ft 415 kts 124°
2026-04-21 09:39 59.37000 0.22365 24324 ft 417 kts 124°
2026-04-21 09:39 59.35329 0.27056 24692 ft 421 kts 124°
2026-04-21 09:39 59.33647 0.31770 25149 ft 423 kts 124°
2026-04-21 09:40 59.31956 0.36501 25587 ft 425 kts 124°
2026-04-21 09:40 59.30254 0.41252 26187 ft 424 kts 123°
2026-04-21 09:40 59.28558 0.45975 26759 ft 425 kts 124°
2026-04-21 09:40 59.26846 0.50737 27223 ft 429 kts 124°
2026-04-21 09:41 59.25115 0.55538 27768 ft 432 kts 124°
2026-04-21 09:41 59.23378 0.60349 28312 ft 435 kts 124°
2026-04-21 09:41 59.21626 0.65191 28886 ft 438 kts 124°
2026-04-21 09:41 59.19886 0.69993 29419 ft 441 kts 124°
2026-04-21 09:42 59.18081 0.74960 29943 ft 444 kts 124°
2026-04-21 09:42 59.16284 0.79894 30429 ft 449 kts 125°
2026-04-21 09:42 59.14493 0.84799 30942 ft 451 kts 124°
2026-04-21 09:42 59.12672 0.89780 31433 ft 453 kts 124°
2026-04-21 09:43 59.10836 0.94787 31968 ft 453 kts 124°
2026-04-21 09:43 59.08994 0.99804 32357 ft 458 kts 124°
2026-04-21 09:43 59.07132 1.04866 32682 ft 462 kts 124°
2026-04-21 09:43 59.05254 1.09961 33037 ft 466 kts 124°
2026-04-21 09:44 59.03356 1.15096 33390 ft 469 kts 124°
2026-04-21 09:44 59.01459 1.20216 33845 ft 469 kts 124°
2026-04-21 09:44 58.99541 1.25382 34258 ft 471 kts 124°
2026-04-21 09:44 58.97641 1.30490 34674 ft 472 kts 124°
2026-04-21 09:45 58.95718 1.35645 35043 ft 472 kts 124°
2026-04-21 09:45 58.93786 1.40815 35403 ft 473 kts 124°
2026-04-21 09:45 58.91854 1.45975 35723 ft 474 kts 124°
2026-04-21 09:45 58.89915 1.51141 36095 ft 475 kts 124°
2026-04-21 09:46 58.87974 1.56302 36435 ft 475 kts 124°
2026-04-21 09:46 58.86024 1.61475 36784 ft 476 kts 124°
2026-04-21 09:46 58.84071 1.66645 37085 ft 477 kts 124°
2026-04-21 09:46 58.82112 1.71822 37417 ft 478 kts 124°
2026-04-21 09:47 58.80140 1.77020 37724 ft 479 kts 124°
2026-04-21 09:47 58.78165 1.82213 38059 ft 480 kts 124°
2026-04-21 09:47 58.76189 1.87396 38376 ft 480 kts 124°
2026-04-21 09:47 58.74213 1.92572 38727 ft 481 kts 124°
2026-04-21 09:48 58.72222 1.97774 39025 ft 482 kts 124°
2026-04-21 09:48 58.70232 2.02963 39293 ft 483 kts 124°
2026-04-21 09:48 58.68233 2.08162 39497 ft 483 kts 125°
2026-04-21 09:48 58.66254 2.13298 39736 ft 483 kts 125°
2026-04-21 09:49 58.64251 2.18484 39978 ft 483 kts 125°
2026-04-21 09:49 58.62248 2.23661 40226 ft 483 kts 125°
2026-04-21 09:49 58.60243 2.28830 40405 ft 483 kts 125°
2026-04-21 09:49 58.58232 2.34005 40631 ft 484 kts 125°
2026-04-21 09:50 58.56219 2.39173 40852 ft 484 kts 125°
2026-04-21 09:50 58.55542 2.40908 40902 ft 484 kts 125°
2026-04-21 09:50 58.50168 2.54640 41456 ft 484 kts 125°
2026-04-21 09:51 58.46113 2.64951 41555 ft 485 kts 125°
2026-04-21 09:51 58.42215 2.75440 41563 ft 483 kts 118°
2026-04-21 09:52 58.39769 2.87241 41563 ft 479 kts 101°
2026-04-21 09:52 58.39290 2.99825 41563 ft 477 kts 88°
2026-04-21 09:53 58.39518 3.12468 41574 ft 477 kts 86°
2026-04-21 09:53 58.39811 3.25110 41565 ft 477 kts 87°
2026-04-21 09:54 58.40060 3.37670 41564 ft 477 kts 87°
2026-04-21 09:54 58.40271 3.50301 41560 ft 477 kts 88°
2026-04-21 09:55 58.40463 3.62951 41559 ft 477 kts 88°
2026-04-21 09:55 58.40642 3.75593 41553 ft 477 kts 88°
2026-04-21 09:56 58.40811 3.88233 41549 ft 477 kts 88°
2026-04-21 09:56 58.40967 4.00871 41550 ft 477 kts 88°
2026-04-21 09:57 58.41111 4.13524 41545 ft 477 kts 88°
2026-04-21 09:57 58.41242 4.26087 41543 ft 477 kts 88°
2026-04-21 09:58 58.41362 4.38743 41547 ft 477 kts 88°
2026-04-21 09:58 58.41468 4.51388 41537 ft 477 kts 88°
2026-04-21 09:59 58.41563 4.64035 41530 ft 477 kts 88°
2026-04-21 09:59 58.41645 4.76697 41530 ft 477 kts 88°
2026-04-21 10:00 58.41714 4.89280 41539 ft 477 kts 88°
2026-04-21 10:00 58.41770 5.01918 41534 ft 477 kts 89°
2026-04-21 10:01 58.41815 5.14577 41526 ft 477 kts 89°
2026-04-21 10:01 58.41847 5.27231 41516 ft 477 kts 89°
2026-04-21 10:02 58.41872 5.46242 41521 ft 477 kts 89°
2026-04-21 10:03 58.41873 5.58899 41512 ft 477 kts 89°
2026-04-21 10:03 58.41861 5.71555 41512 ft 477 kts 89°
2026-04-21 10:04 58.41842 5.82098 41508 ft 477 kts 89°
2026-04-21 10:04 58.41801 5.96852 41504 ft 477 kts 89°
2026-04-21 10:05 58.41761 6.07385 41503 ft 477 kts 89°
2026-04-21 10:05 58.41701 6.20058 41500 ft 477 kts 89°
2026-04-21 10:06 58.41498 6.32721 41506 ft 478 kts 95°
2026-04-21 10:06 58.39814 6.44978 41496 ft 480 kts 112°
2026-04-21 10:07 58.36162 6.55640 41496 ft 485 kts 131°
2026-04-21 10:07 58.30842 6.63427 41493 ft 490 kts 150°
2026-04-21 10:08 58.24357 6.67478 41494 ft 495 kts 170°
2026-04-21 10:08 58.17470 6.68553 41494 ft 496 kts 169°
2026-04-21 10:09 58.10778 6.71612 41495 ft 494 kts 162°
2026-04-21 10:09 58.04214 6.75444 41502 ft 494 kts 160°
2026-04-21 10:10 57.97687 6.79447 41498 ft 493 kts 160°
2026-04-21 10:10 57.91201 6.83403 41503 ft 493 kts 160°
2026-04-21 10:11 57.84666 6.87340 41498 ft 493 kts 160°
2026-04-21 10:11 57.78130 6.91247 41497 ft 493 kts 160°
2026-04-21 10:12 57.71585 6.95142 41502 ft 493 kts 160°
2026-04-21 10:12 57.65093 6.98993 41497 ft 493 kts 160°
2026-04-21 10:13 57.58558 7.02855 41495 ft 493 kts 160°
2026-04-21 10:13 57.52019 7.06705 41495 ft 493 kts 160°
2026-04-21 10:14 57.45483 7.10539 41495 ft 493 kts 160°
2026-04-21 10:14 57.38937 7.14365 41495 ft 493 kts 160°
2026-04-21 10:15 57.32394 7.18175 41509 ft 493 kts 160°
2026-04-21 10:15 57.25845 7.21973 41495 ft 493 kts 160°
2026-04-21 10:16 57.19301 7.25755 41494 ft 493 kts 160°
2026-04-21 10:16 57.12747 7.29529 41493 ft 493 kts 160°
2026-04-21 10:17 57.06191 7.33289 41489 ft 493 kts 160°
2026-04-21 10:17 56.99680 7.37010 41484 ft 493 kts 161°
2026-04-21 10:18 56.93111 7.40751 41481 ft 493 kts 161°
2026-04-21 10:18 56.86555 7.44470 41484 ft 494 kts 161°
2026-04-21 10:19 56.79988 7.48182 41482 ft 494 kts 161°
2026-04-21 10:19 56.73451 7.51863 41476 ft 494 kts 161°
2026-04-21 10:20 56.66874 7.55553 41473 ft 494 kts 161°
2026-04-21 10:20 56.60307 7.59224 41476 ft 493 kts 161°
2026-04-21 10:21 56.53734 7.62886 41468 ft 494 kts 161°
2026-04-21 10:21 56.47160 7.66534 41462 ft 494 kts 161°
2026-04-21 10:22 56.40582 7.70171 41462 ft 494 kts 161°
2026-04-21 10:22 56.33999 7.73799 41461 ft 494 kts 161°
2026-04-21 10:23 56.27466 7.77385 41458 ft 495 kts 161°
2026-04-21 10:23 56.20872 7.80993 41454 ft 495 kts 161°
2026-04-21 10:24 56.14277 7.84587 41452 ft 495 kts 161°
2026-04-21 10:24 56.07685 7.88168 41452 ft 495 kts 161°
2026-04-21 10:25 56.01087 7.91739 41460 ft 496 kts 161°
2026-04-21 10:25 55.94472 7.95306 41442 ft 497 kts 161°
2026-04-21 10:26 55.87860 7.98858 41438 ft 496 kts 161°
2026-04-21 10:26 55.81239 8.02403 41438 ft 496 kts 161°
2026-04-21 10:27 55.74662 8.05912 41439 ft 496 kts 161°
2026-04-21 10:27 55.68045 8.09430 41433 ft 496 kts 161°
2026-04-21 10:28 55.61425 8.12937 41439 ft 496 kts 161°
2026-04-21 10:28 55.54806 8.16431 41436 ft 496 kts 161°
2026-04-21 10:29 55.48191 8.19911 41445 ft 496 kts 161°
2026-04-21 10:29 55.41565 8.23385 41431 ft 497 kts 161°
2026-04-21 10:30 55.34933 8.26849 41427 ft 497 kts 161°
2026-04-21 10:30 55.28301 8.30301 41431 ft 497 kts 161°
2026-04-21 10:31 55.21697 8.33727 41426 ft 497 kts 161°
2026-04-21 10:31 55.15049 8.37164 41408 ft 498 kts 161°
2026-04-21 10:32 55.08407 8.40614 41407 ft 497 kts 160°
2026-04-21 10:32 55.02071 8.45428 41434 ft 500 kts 152°
2026-04-21 10:33 54.95801 8.50920 41428 ft 508 kts 151°
2026-04-21 10:33 54.89515 8.56518 41418 ft 512 kts 151°
2026-04-21 10:34 54.83146 8.62146 41417 ft 514 kts 151°
2026-04-21 10:34 54.76752 8.67750 41415 ft 514 kts 151°
2026-04-21 10:35 54.70361 8.73322 41422 ft 514 kts 151°
2026-04-21 10:35 54.63969 8.78875 41564 ft 511 kts 151°
2026-04-21 10:35 54.60806 8.81615 42012 ft 504 kts 152°
2026-04-21 10:36 54.57722 8.84282 42380 ft 501 kts 152°
2026-04-21 10:36 54.54570 8.87004 42654 ft 500 kts 152°
2026-04-21 10:36 54.51463 8.89685 42865 ft 499 kts 152°
2026-04-21 10:36 54.48398 8.92325 43079 ft 499 kts 152°
2026-04-21 10:37 54.45285 8.95002 43260 ft 499 kts 152°
2026-04-21 10:37 54.42177 8.97669 43383 ft 501 kts 152°
2026-04-21 10:37 54.39060 9.00340 43389 ft 500 kts 152°
2026-04-21 10:38 54.32815 9.05675 43386 ft 501 kts 152°
2026-04-21 10:38 54.26559 9.11002 43385 ft 501 kts 152°
2026-04-21 10:39 54.20312 9.16302 43389 ft 501 kts 152°
2026-04-21 10:39 54.14102 9.21554 43385 ft 501 kts 152°
2026-04-21 10:40 54.07838 9.26835 43383 ft 503 kts 152°
2026-04-21 10:40 54.01558 9.32109 43378 ft 503 kts 152°
2026-04-21 10:41 53.95281 9.37364 43375 ft 503 kts 152°
2026-04-21 10:41 53.88998 9.42606 43376 ft 503 kts 152°
2026-04-21 10:42 53.85084 9.45862 43381 ft 504 kts 152°
2026-04-21 10:42 53.78194 9.51579 43371 ft 504 kts 152°
2026-04-21 10:43 53.71895 9.56785 43370 ft 504 kts 152°
2026-04-21 10:43 53.65582 9.61988 43371 ft 505 kts 153°
2026-04-21 10:44 53.59314 9.67134 43372 ft 504 kts 153°
2026-04-21 10:44 53.52991 9.72310 43365 ft 505 kts 153°
2026-04-21 10:45 53.46654 9.77480 43368 ft 505 kts 153°
2026-04-21 10:45 53.40325 9.82625 43354 ft 505 kts 153°
2026-04-21 10:46 53.33994 9.87755 43355 ft 505 kts 153°
2026-04-21 10:46 53.27661 9.92869 43351 ft 504 kts 153°
2026-04-21 10:47 53.21385 9.97921 43350 ft 504 kts 153°
2026-04-21 10:47 53.15069 10.02989 43350 ft 504 kts 153°
2026-04-21 10:48 53.08742 10.08049 43342 ft 504 kts 153°
2026-04-21 10:48 53.02423 10.13087 43347 ft 503 kts 153°
2026-04-21 10:49 52.96104 10.18108 43352 ft 504 kts 153°
2026-04-21 10:49 52.89772 10.23121 43346 ft 504 kts 153°
2026-04-21 10:50 52.84500 10.27284 43348 ft 504 kts 153°
2026-04-21 10:50 52.81321 10.29788 43081 ft 505 kts 153°
2026-04-21 10:50 52.77124 10.33090 42560 ft 504 kts 153°
2026-04-21 10:50 52.73959 10.35574 42177 ft 503 kts 153°
2026-04-21 10:51 52.70792 10.38055 41748 ft 503 kts 153°
2026-04-21 10:51 52.67629 10.40529 41194 ft 504 kts 153°
2026-04-21 10:51 52.65490 10.42201 40775 ft 504 kts 153°
2026-04-21 10:51 52.62357 10.44645 40184 ft 503 kts 153°
2026-04-21 10:52 52.59200 10.47104 39593 ft 503 kts 153°
2026-04-21 10:52 52.56035 10.49566 39024 ft 502 kts 153°
2026-04-21 10:52 52.52873 10.52021 38303 ft 502 kts 153°
2026-04-21 10:52 52.49720 10.54466 37600 ft 501 kts 153°
2026-04-21 10:53 52.46557 10.56913 36910 ft 500 kts 153°
2026-04-21 10:53 52.43422 10.59334 36232 ft 499 kts 152°
2026-04-21 10:53 52.40277 10.61760 35576 ft 497 kts 152°
2026-04-21 10:53 52.37163 10.64157 34935 ft 494 kts 152°
2026-04-21 10:54 52.34088 10.66521 34304 ft 492 kts 152°
2026-04-21 10:54 52.30987 10.68902 33557 ft 490 kts 152°
2026-04-21 10:54 52.27906 10.71263 32825 ft 489 kts 151°
2026-04-21 10:54 52.24831 10.73618 32130 ft 488 kts 151°
2026-04-21 10:55 52.21757 10.75968 31435 ft 487 kts 151°
2026-04-21 10:55 52.18679 10.78316 30756 ft 487 kts 150°
2026-04-21 10:55 52.15618 10.80649 30043 ft 485 kts 150°
2026-04-21 10:55 52.12567 10.82971 29246 ft 482 kts 150°
2026-04-21 10:56 52.09571 10.85349 28479 ft 476 kts 148°
2026-04-21 10:56 52.06662 10.87848 27744 ft 469 kts 147°
2026-04-21 10:56 52.03816 10.90377 27123 ft 462 kts 147°
2026-04-21 10:56 52.01012 10.92882 26554 ft 459 kts 147°
2026-04-21 10:57 51.98218 10.95362 25984 ft 457 kts 147°
2026-04-21 10:57 51.95432 10.97809 25437 ft 455 kts 147°
2026-04-21 10:57 51.92657 11.00221 24888 ft 451 kts 148°
2026-04-21 10:57 51.89891 11.02607 24418 ft 448 kts 148°
2026-04-21 10:58 51.87149 11.04961 23960 ft 445 kts 148°
2026-04-21 10:58 51.84422 11.07302 23425 ft 442 kts 148°
2026-04-21 10:58 51.81716 11.09619 22906 ft 439 kts 148°
2026-04-21 10:58 51.79020 11.11922 22324 ft 436 kts 148°
2026-04-21 10:59 51.76399 11.14157 22071 ft 429 kts 148°
2026-04-21 10:59 51.73749 11.16415 21874 ft 430 kts 148°
2026-04-21 10:59 51.71112 11.18662 21489 ft 429 kts 148°
2026-04-21 10:59 51.68471 11.20905 21111 ft 429 kts 149°
2026-04-21 11:00 51.65705 11.22739 20702 ft 432 kts 160°
2026-04-21 11:00 51.62725 11.23583 20320 ft 437 kts 174°
2026-04-21 11:00 51.59699 11.23165 19931 ft 441 kts 190°
2026-04-21 11:00 51.56833 11.21407 19524 ft 444 kts 207°
2026-04-21 11:01 51.54352 11.18449 18938 ft 443 kts 221°
2026-04-21 11:01 51.51956 11.15389 18290 ft 438 kts 215°
2026-04-21 11:01 51.49608 11.12289 17611 ft 435 kts 221°
2026-04-21 11:02 51.45538 11.05275 16286 ft 430 kts 228°
2026-04-21 11:02 51.43613 11.01710 15642 ft 425 kts 228°
2026-04-21 11:02 51.41694 10.98155 15007 ft 419 kts 228°
2026-04-21 11:02 51.39794 10.94640 14368 ft 415 kts 228°
2026-04-21 11:03 51.37911 10.91160 13738 ft 411 kts 228°
2026-04-21 11:03 51.36032 10.87737 13129 ft 407 kts 227°
2026-04-21 11:03 51.34152 10.84372 12789 ft 405 kts 227°
2026-04-21 11:03 51.32278 10.81022 12467 ft 403 kts 227°
2026-04-21 11:04 51.30418 10.77701 12143 ft 396 kts 227°
2026-04-21 11:04 51.28620 10.74491 11867 ft 379 kts 227°
2026-04-21 11:04 51.26899 10.71416 11576 ft 364 kts 227°
2026-04-21 11:04 51.25243 10.68454 11294 ft 351 kts 227°
2026-04-21 11:05 51.23642 10.65585 11001 ft 339 kts 227°
2026-04-21 11:05 51.22096 10.62810 10694 ft 328 kts 227°
2026-04-21 11:05 51.20607 10.60130 10431 ft 319 kts 227°
2026-04-21 11:05 51.19187 10.57569 10277 ft 306 kts 227°
2026-04-21 11:06 51.17754 10.55077 10260 ft 301 kts 222°
2026-04-21 11:06 51.16093 10.53149 9861 ft 294 kts 204°
2026-04-21 11:06 51.14143 10.52383 9201 ft 290 kts 175°
2026-04-21 11:06 51.12198 10.53015 8689 ft 283 kts 158°
2026-04-21 11:07 51.10337 10.54043 8203 ft 282 kts 156°
2026-04-21 11:07 51.08510 10.55086 7929 ft 273 kts 156°
2026-04-21 11:07 51.06760 10.56078 7763 ft 261 kts 156°
2026-04-21 11:07 51.05088 10.57023 7613 ft 250 kts 156°
2026-04-21 11:08 51.03486 10.57928 7467 ft 239 kts 156°
2026-04-21 11:08 51.01992 10.58902 7300 ft 225 kts 142°
2026-04-21 11:08 51.01034 10.60693 7195 ft 206 kts 115°
2026-04-21 11:08 51.00610 10.62759 7051 ft 194 kts 96°
2026-04-21 11:09 51.00467 10.64829 6938 ft 184 kts 94°
2026-04-21 11:09 51.00319 10.66796 6833 ft 175 kts 95°
2026-04-21 11:09 51.00167 10.68659 6529 ft 168 kts 95°
2026-04-21 11:09 51.00012 10.70533 5900 ft 176 kts 95°
2026-04-21 11:10 50.99849 10.72513 5250 ft 185 kts 95°
2026-04-21 11:10 50.99682 10.74580 4601 ft 192 kts 95°
2026-04-21 11:10 50.99512 10.76704 3852 ft 194 kts 95°
2026-04-21 11:10 50.99343 10.78809 3092 ft 189 kts 94°
2026-04-21 11:11 50.99184 10.80792 2673 ft 170 kts 95°
2026-04-21 11:11 50.99044 10.82534 2550 ft 150 kts 95°
2026-04-21 11:11 50.98919 10.84099 2336 ft 136 kts 94°
2026-04-21 11:11 50.98804 10.85533 2144 ft 125 kts 93°
2026-04-21 11:12 50.98700 10.86846 1963 ft 121 kts 94°
2026-04-21 11:12 50.98594 10.88174 1786 ft 122 kts 94°
2026-04-21 11:12 50.98487 10.89521 1619 ft 124 kts 95°
2026-04-21 11:12 50.98376 10.90891 1445 ft 126 kts 93°
2026-04-21 11:13 50.98265 10.92281 1275 ft 127 kts 95°
2026-04-21 11:13 50.98149 10.93678 1094 ft 128 kts 94°
2026-04-21 11:13 50.98045 10.94989 1039 ft 84 kts 98°
2026-04-21 11:13 50.98013 10.95382 1036 ft 10 kts 97°
2026-04-21 11:14 50.98002 10.95516 1035 ft 15 kts 97°
2026-04-21 11:14 50.97987 10.95706 1031 ft 20 kts 97°
2026-04-21 11:14 50.97969 10.95937 1031 ft 22 kts 97°
2026-04-21 11:14 50.97948 10.96201 1031 ft 21 kts 98°
2026-04-21 11:15 50.97908 10.96280 1032 ft 8 kts 165°
2026-04-21 11:15 50.97836 10.96281 1034 ft 13 kts 185°
2026-04-21 11:15 50.97767 10.96270 1033 ft 10 kts 186°
2026-04-21 11:15 50.97686 10.96254 1033 ft 9 kts 187°
2026-04-21 11:16 50.97628 10.96242 1032 ft 7 kts 187°
2026-04-21 11:16 50.97593 10.96218 1033 ft 4 kts 237°
2026-04-21 11:16 50.97584 10.96165 1031 ft 5 kts 248°
2026-04-21 11:16 50.97580 10.96152 1031 ft 0 kts 243°